map of DHA home
DHA - Airport
Location
City:  Dhahran, Saudi Arabia
Name:King Abdulaziz AB
Old (Alt.):Dhahran International Airport
ICAO:OEDR
IATA:DHA

Details
Type:Airport (Aerodrome, Airfield)
Use:Military, International (customs port of entry)
Latitude:2615'51"N (26.264167)
Longitude:5009'09"E (50.152500)
Elevation:84 ft (26 m)
Variation:2.84E (WMM2015 magnetic declination)
0.05 annual change
Runways:2
Longest:12008 × 148 ft (3660 × 45 m), paved

Time
Time Zone:UTC+3
Local Time:

Weather
METAR:OEDR 182100Z 35010KT CAVOK 37/09 Q0997 NOSIG

Related Locations
Nearby:
Farthest:GMR: 12056 mi / 19403 km
Mangareva [Totegegie], Gambier Islands, PF

Find:

   beyond  
but within

Other Information
Maps:
NOTAMs:
Links:
Sources:

  
  • flag of Saudi Arabia
  

Airport Diagram

Airport diagram for DHA

Larger airport diagram (OBSOLETE) from NGA

Sectional Chart

Flight Planning
at skyvector.com

Satellite Image

Google Maps Satellite view

 

Copyright © 2004-2018 Karl L. Swartz. All rights reserved.
The Great Circle Mapper name and logo are trademarks of the Great Circle Mapper.
All other trademarks mentioned herein belong to their respective owners.
Please see credits for attibutions and further copyright information.

  Follow gcmap on Facebook Follow gcmap on Twitter Follow gcmap on Google+ GCmap on LinkedIn

hCard Microformat

Geo Microformat